Regional Weather Roundup
Issued by NWS

Home | Current Version | Previous Version | Text Only | Print | Product List | Glossary Off
Versions: 1 2 3 4 5 6 7 8 9 10 11 12 13 14 15 16 17 18 19 20 21 22 23 24 25 26 27 28 29 30 31 32 33 34 35 36 37 38 39 40 41 42 43 44 45 46 47 48 49 50

000
ASUS43 KDTX 030210
RWRMI
MICHIGAN HOURLY REGIONAL WEATHER ROUNDUP
NATIONAL WEATHER SERVICE DETROIT/PONTIAC MI
900 PM EST MON MAR 02 2015

NOTE: "FAIR" INDICATES FEW OR NO CLOUDS BELOW 12,000 FEET WITH NO
SIGNIFICANT WEATHER AND/OR OBSTRUCTION TO VISIBILITY.

MIZ047>049-052>055-059>063-066>070-074>076-081>083-030300-
SOUTHEAST LOWER MICHIGAN

CITY           SKY/WX    TMP DP  RH WIND       PRES   REMARKS
ADRIAN         MOCLDY    19  11  70 CALM      30.39F
ALMA           PTCLDY    20  11  68 S5        30.36S WCI  13
ANN ARBOR      PTCLDY    18  10  71 CALM      30.37F
BAD AXE        CLEAR      8   4  82 S3        30.36F
CARO           CLEAR      9   4  79 CALM      30.35F
DETROIT CITY   CLEAR     24  10  55 CALM      30.39F
DETROIT        MOCLDY    25  13  60 S6        30.40F WCI  18
FLINT          PTCLDY    14   5  67 S6        30.37F WCI   5
GROSSE ILE     PTCLDY    16   9  73 CALM      30.38F
HILLSDALE      MOCLDY    21  11  67 S3        30.35S
HOWELL         PTCLDY    20  11  69 CALM      30.35F

CITY           SKY/WX    TMP DP  RH WIND       PRES   REMARKS
JACKSON        MOCLDY    22  13  68 W3        30.36F
LAMBERTVILLE   PTCLDY    25  16  68 S5        30.40F WCI  19
LANSING        MOCLDY    24  12  60 SW3       30.37F
LAPEER         FAIR      12   7  81 CALM      30.37F
MASON          MOCLDY    21  12  68 CALM      30.36F
MONROE         PTCLDY    18  10  73 CALM      30.38F
MT. CLEMENS    CLEAR     17  10  75 SE2       30.37F
PONTIAC        PTCLDY    19  10  68 CALM      30.35F
PORT HOPE        N/A     20   8  60 SW6       30.34F WCI  12
PORT HURON     PTCLDY    14   9  79 CALM      30.40F
TRI CITIES     CLEAR     22   9  57 S6        30.36F WCI  14
TROY           CLEAR     24  11  58 CALM      30.40F
SAGINAW HB     CLEAR     19  10  68 S6        30.36F WCI  11
$$
MIZ043>046-050>051-056>058-064>065-071>073-077>080-030300-
SOUTHWEST LOWER MICHIGAN

CITY           SKY/WX    TMP DP  RH WIND       PRES   REMARKS
BATTLE CREEK   MOCLDY    24  13  62 S6        30.35F WCI  17
BENTON HARBOR  MOCLDY    23  17  78 SE5       30.35F WCI  17
BIG RAPIDS     PTCLDY    17   8  68 CALM      30.32F
COLDWATER      PTCLDY    16  11  80 SE5       30.35F WCI   9
FREMONT        FAIR      19  10  65 CALM      30.34F
HOLLAND        CLOUDY    22  15  75 CALM      30.36F
GRAND RAPIDS   CLOUDY    22  13  68 S5        30.35F WCI  16
IONIA          FAIR      23  14  68 CALM      30.34F
KALAMAZOO      PTCLDY    23  13  65 CALM      30.34F
LUDINGTON      PTCLDY    15   8  76 CALM      30.34F
MARSHALL       MOCLDY    20  12  72 S3        30.34F
MOUNT PLEASANT CLEAR     22  11  63 SW6       30.34F WCI  15
MUSKEGON       CLOUDY    23  14  68 S5        30.35F WCI  17
SOUTH HAVEN    MOCLDY    23  17  77 E3        30.34F
$$
MIZ016>042-030300-
NORTHERN LOWER MICHIGAN

CITY           SKY/WX    TMP DP  RH WIND       PRES   REMARKS
ALPENA         CLEAR      9   0  67 CALM      30.35F
BEAVER ISLAND  CLEAR     17   9  71 CALM      30.31F
BELLAIRE       CLEAR      8   3  82 CALM      30.35F
CADILLAC       FAIR       8   0  72 CALM      30.29S
CHARLEVOIX     CLEAR      8   3  81 CALM      30.36F
FRANKFORT      PTCLDY    10   7  87 CALM      30.34F
GAYLORD        CLEAR      9   2  73 CALM      30.28F
GRAYLING       CLEAR      3  -3  73 CALM      30.31F
HARBOR SPRINGS CLEAR      9   3  77 CALM      30.33F
HOUGHTON LAKE  CLEAR      9   1  70 CALM      30.30F
MANISTEE       PTCLDY     9   1  72 E3        30.34F
OSCODA         CLEAR     12  -1  56 CALM      30.34F
PELLSTON       CLEAR      4  -1  80 CALM      30.34F
ROGERS CITY    CLEAR     12   4  71 W5        30.35F WCI   4
TRAVERSE CITY  PTCLDY    10   4  76 CALM      30.34F
$$
MIZ007>008-015-030300-
EASTERN UPPER MICHIGAN

CITY           SKY/WX    TMP DP  RH WIND       PRES   REMARKS
KINROSS        CLEAR      7   3  85 CALM      30.31F
MACKINAC ISLAN CLEAR     17   6  62 SW8       30.32F WCI   6
NEWBERRY       CLEAR     12   7  79 S6        30.27F WCI   3
S. S. MARIE    CLEAR      7   1  76 S3        30.32F
MUNISING         N/A     10   3  73 SW5       30.25F WCI   2
$$
MIZ004>006-011>014-085-030300-
CENTRAL UPPER MICHIGAN

CITY           SKY/WX    TMP DP  RH WIND       PRES   REMARKS
MANISTIQUE     CLEAR     21  16  80 S8        30.28F WCI  12
ESCANABA       CLEAR     19  12  73 S7        30.29F WCI  10
MENOMINEE      CLEAR     19   7  58 S5        30.28F WCI  13
SAWYER-GWINN   CLEAR     18   7  62 S9        30.19F WCI   6
$$
MIZ001>003-009>011-084-030300-
WESTERN UPPER MICHIGAN

CITY           SKY/WX    TMP DP  RH WIND       PRES   REMARKS
IRON MOUNTAIN  CLEAR     21   5  50 S7        30.19  WCI  12
HOUGHTON       CLEAR     13   5  70 E6        30.16F WCI   4
COPPER HARBOR    N/A     14   7  73 SW8       30.18F WCI   3
IRONWOOD       CLEAR     21   0  39 SW7       30.12F WCI  13
$$

ABBREVIATIONS USED IN REMARKS
   TC - TEMPERATURE IN CELSIUS
  WCI - WIND CHILL INDEX
   HX - HEAT INDEX
  VSB - VISIBILITY




USA.gov is the U.S. government's official web portal to all federal, state and local government web resources and services.